Погода Нижний Тагил

Хотите узнать прогноз погоды Нижний Тагил? Тогда Вам сюда: Погода Нижний Тагил

Поиск расширенной информации на нашем сайте:

Полезная информация:

Новости сайта



02.01.2020
Опубликован Долгосрочный прогноз погоды по городам России и ближнего зарубежья на январь 2020 года.
Карты: Прогноз на январь и февраль 2020 года, Сравнение прогнозируемой аномалии приземной температуры воздуха на январь 2020 года по разным моделям.




Погода Нижний Тагил - сегодня

Время (UTC), дата Ветер
(°,м/с) 
Видим.   Явления Облачность Т
(°С)
Тd
(°С)
f(%) Тe
(°С)
Pmin
(гПа)
dP
(гПа)
Po
(мм)
O2
(г/м3)
Тmin Tmax R s Состояние
почвы
18 24.01.20 270 (З) 20000 м  {снег}  5/0 средняя 
[As op]
-10 -12.7 81 -13  996.6  0.3  723  303           
21 24.01.20 250 (З) 20000 м    4/0 средняя 
[As op]
-11.1 -13.1 85 -13  996.7  -0.1  723  305           
00 25.01.20 250 (З) 10 км  слаб. снег  6/0 средняя 
[As op]
-11.4 -13.4 85 -15  996.4  -0.3  722  305           
03 25.01.20 250 (З) 20000 м  {снег}  4/0 средняя 
[As op]
-12.4 -14.4 85 -12  996.3  -0.2  722  306  -12.6    0.2  22  равномерный
сухой снег
100% 
06 25.01.20 230 (ЮЗ) 20000 м  {снег}  8/8 600 м 
[Sc]
-10.9 -12.2 90 -11  996.1  -0.1  722  304           
09 25.01.20 200 (Ю) 20000 м    3/3 600 м 
[Sc]
-9.3 -13.3 73 -11  995.5  -0.3  722  302           
12 25.01.20 180 (Ю) 20000 м    8/4 600 м средняя 
[Sc|As op]
-11 -14.6 75 -13  995  -0.7  721  304           
15 25.01.20 140 (ЮВ) 4000 м  слаб. снег  9/0 средняя 
[As op]
-11.9 -13.9 85 -12  993.9  -1.2  721  305    -9.2  0.0     
18 25.01.20 180 (Ю) 4000 м  слаб. снег  10/0 средняя 
[As op]
-11.6 -12.9 90 -11  992.8  -1  720  304           
21 25.01.20 180 (Ю) 4000 м  в посл. час снег  10/0 средняя 
[As op]
-11 -12.3 90 -11  992.6  -0.2  720  303           
00 26.01.20 180 (Ю) 20000 м  {снег}  10/0 средняя 
[As op]
-10.7 -12 90 -13  991.2  -1.3  719  302           
03 26.01.20 180 (Ю) 20000 м    10/0 средняя 
[As op]
-10.2 -11.5 90 -10  990.9  -0.1  719  302  -11.9    0.7  22  равномерный
сухой снег
100% 
06 26.01.20 тихо ()   4000 м  слаб. снег  10/0 средняя 
[As op]
-9.6 -10.8 91 -10  991.3  0.5  719  301           
09 26.01.20 тихо ()   10 км  слаб. снег  9/6 600 м средняя, верхняя 
[Sc|Ac lent|Cc]
-6.2 -8.1 86 -6  990.5  -0.4  719  297           
12 26.01.20 070 (В) 10 км  слаб. снег  10/10 600 м 
[Sc]
-7.4 -8.7 90 -9  991.1  0.4  719  299           
15 26.01.20 050 (СВ) 20000 м  {снег}  10/10 600 м 
[Sc]
-9.6 -10.8 91 -9  991.6  0.3  719  301    -6  0.5     
18 26.01.20 360 (С) 4000 м  слаб. ливневой снег  10/10 600 м кучево-дожд. 
[Cb cap]
-11.9 -12.5 95 -12  993.2  1.1  720  304           
21 26.01.20 тихо ()   20000 м  {ливн. осадки}  10/10 600 м кучево-дожд. 
[Cb cap]
-13.6 -14.9 90 -14  994.8  1.5  721  307           
00 27.01.20 тихо ()   20000 м  {ливн. осадки}  10/10 600 м кучево-дожд. 
[Cb cap]
-12.8 -14.1 90 -13  994.8  721  306           
03 27.01.20 тихо ()   2000 м  слаб. ливневой снег  10/10 600 м кучево-дожд. 
[Cb cap]
-13.2 -13.8 95 -13  995.2  0.4  721  307  -13.8    24  равномерный
сухой снег
100% 
06 27.01.20 270 (З) 20000 м  в посл. час ливневой снег  10/10 600 м кучево-дожд. 
[Cb cap]
-13.1 -14.4 90 -13  995.9  0.6  722  307           
09 27.01.20 270 (З) 10 км  слаб. ливневой снег  10/10 600 м кучево-дожд. 
[Cb cap]
-14.1 -16.8 80 -18  997.4  1.3  723  308           
12 27.01.20 270 (З) 20000 м  {ливн. осадки}  8/8 600 м кучево-дожд. 
[Cb cap]
-13.7 -17.2 75 -14  998.7  1.3  724  308           
15 27.01.20 290 (З) 20000 м    6/6 600 м кучево-дожд. 
[Cb cap]
-16.4 -19 80 -19  1001  725  312    -13  0.5     
18 27.01.20 290 (З) 20000 м    4/4 600 м кучево-дожд. 
[Cb cap]
-17.6 -20.2 80 -20  1002.8  1.4  726  314           
Время (UTC), дата Ветер
(°,м/с) 
Видим.   Явления Облачность Т
(°С)
Тd
(°С)
f(%) Тe
(°С)
Pmin
(гПа)
dP
(гПа)
Po
(мм)
O2
(г/м3)
Тmin Tmax R s Состояние
почвы

Для получения пояснительной информации подведите курсор к названию столбца.

ПОГОДА Нижний Тагил - архив

Всё, что Вы хотите узнать о погоде Нижний Тагил - удобно и подробно!

Выберите нужную дату (начиная с 1 января 2019* года) и нажмите кнопку "Найти".
Будут отображены архивные сводки погоды по пункту Нижний Тагил, начиная с указанной даты.


Отображать данные в формате CSV (для использования в таблицах Excel)


Внимание! Наш архив погоды предназначен исключительно для личного некоммерческого использования в познавательных целях. Если Вам необходимы официальные справки о состоянии погоды (для производственных, юридических, коммерческих и т.п. целей), обращайтесь в органы Росгидромета.

*Примечание: данная дата относится к архиву по метеостанциям СССР (Россия, СНГ, Балтия).
Архив по метеостанциям Зарубежной Европы и Азии (кроме Китая) хранится 10 дней, по другим регионам земного шара (Китай, Африка, Америка, Австралия, Океания) - 1 день.

Нижний Тагил - район местоположения метеостанции


Название, широта, долгота, высота метеостанции:
Нижний Тагил 57.9°ш. 60.1°д. 260 м над ур. моря [Российская Федерация]

Дополнительная информация

В oтличие oт бoльшинства пoгoдных сайтoв мы публикуем пoдрoбную метеoинфoрмацию в детальнoм прoфессиoнальнoм фoрмате.

Характеристики температуры и влажнoсти вoздуха измеряются на высoте 2 м в тени вдали oт зданий и деревьев.
Скoрoсть ветра измеряется на высoте 10 м (на урoвне рoста челoвека скoрoсть ветра ниже в 1.5-2 раза). Если метеoстанция нахoдится в гoрoде или в лесу, тo скoрoсть ветра занижена на 2-4 м/с пo сравнению с oткрытым местoм. Скoрoсть ветра над акватoриями крупных рек и oзёр, а также на вершинах хoлмoв на 2-5 м/с выше, чем в oбычных услoвиях.
Атмoсфернoе давление в разных тoчках местнoсти мoжет значительнo oтличаться oт давления на метеoстанции, в зависимoсти oт услoвий рельефа (при пoдъёме на 10 м давление пoнижается примернo на 1 мм рт.ст.).